FW0960 Weather Reports


time (UTC)temp
C
wind
direction
speed
KPH
gust
KPH
rain 1hr
cm
rain 24hr
cm
rain mn
cm
humidity
%
barometer
mb
20260510115202 15 74 0.0 3.2 0.00 0.00 0.00 99 1013.4
20260510114701 15 74 0.0 3.2 0.00 0.00 0.00 99 1013.3
20260510114203 14 74 0.0 0.0 0.00 0.00 0.00 99 1013.3
20260510113204 14 74 0.0 0.0 0.00 0.00 0.00 98 1013.1
20260510112709 13 74 0.0 0.0 0.00 0.00 0.00 99 1013.1
20260510112202 13 74 0.0 0.0 0.00 0.00 0.00 98 1013.1
20260510111704 13 74 0.0 0.0 0.00 0.00 0.00 98 1013.1
20260510110204 13 74 0.0 0.0 0.00 0.00 0.00 98 1012.9
20260510105701 13 74 0.0 0.0 0.00 0.00 0.00 98 1012.8
20260510105205 12 74 0.0 0.0 0.00 0.00 0.00 98 1012.7
20260510104700 12 74 0.0 0.0 0.00 0.00 0.00 98 1012.6
20260510103703 12 74 0.0 0.0 0.00 0.00 0.00 98 1012.5
20260510103211 12 74 0.0 0.0 0.00 0.00 0.00 98 1012.4
20260510102700 12 74 0.0 0.0 0.00 0.00 0.00 98 1012.4
20260510102204 12 74 0.0 0.0 0.00 0.00 0.00 98 1012.5
20260510101703 12 74 0.0 0.0 0.00 0.00 0.00 97 1012.4
20260510100702 12 74 0.0 0.0 0.00 0.00 0.00 97 1012.2
20260510100204 12 74 0.0 0.0 0.00 0.00 0.00 97 1012.3
20260510094705 13 74 0.0 0.0 0.00 0.00 0.00 97 1012.1
20260510094220 13 74 0.0 0.0 0.00 0.00 0.00 97 1012.0
20260510093704 13 74 0.0 0.0 0.00 0.00 0.00 97 1011.9
20260510093204 13 74 0.0 0.0 0.00 0.00 0.00 97 1011.7
20260510091703 13 74 0.0 0.0 0.00 0.00 0.00 97 1011.7
20260510091204 13 74 0.0 0.0 0.00 0.00 0.00 96 1011.8
20260510090704 13 74 0.0 0.0 0.00 0.00 0.00 97 1011.6
20260510090207 13 74 0.0 0.0 0.00 0.00 0.00 97 1011.4
20260510085706 13 74 0.0 0.0 0.00 0.00 0.00 97 1011.4
20260510085207 13 74 0.0 0.0 0.00 0.00 0.00 96 1011.4
20260510084705 13 74 0.0 0.0 0.00 0.00 0.00 96 1011.3
20260510084205 13 74 0.0 0.0 0.00 0.00 0.00 96 1011.3
20260510083705 13 74 0.0 0.0 0.00 0.00 0.00 96 1011.3
20260510083206 13 74 0.0 0.0 0.00 0.00 0.00 96 1011.4
20260510082706 13 74 0.0 0.0 0.00 0.00 0.00 96 1011.3
20260510082203 13 74 0.0 1.6 0.00 0.00 0.00 96 1011.3
20260510080703 14 74 0.0 0.0 0.00 0.00 0.00 95 1011.1
20260510080202 14 74 0.0 0.0 0.00 0.00 0.00 95 1011.2
20260510075705 14 74 0.0 1.6 0.00 0.00 0.00 95 1011.1
20260510074701 15 74 0.0 0.0 0.00 0.00 0.00 94 1011.2
20260510074159 15 74 0.0 0.0 0.00 0.00 0.00 94 1011.2
20260510073653 15 74 0.0 0.0 0.00 0.00 0.00 94 1011.4
20260510073145 15 74 0.0 0.0 0.00 0.00 0.00 94 1011.3
20260510072643 15 74 0.0 1.6 0.00 0.00 0.00 93 1011.2
20260510072141 15 74 0.0 3.2 0.00 0.00 0.00 93 1011.4
20260510071638 16 74 0.0 3.2 0.00 0.00 0.00 94 1011.1
20260510071144 15 65 0.0 3.2 0.00 0.00 0.00 95 1011.1
20260510070638 15 61 1.6 4.8 0.00 0.00 0.00 95 1011.0
20260510070138 15 46 1.6 6.4 0.00 0.00 0.00 96 1011.1
20260510065639 15 40 0.0 6.4 0.00 0.00 0.00 97 1011.1
20260510065138 14 46 0.0 1.6 0.00 0.00 0.00 97 1011.1
20260510064639 14 43 0.0 1.6 0.00 0.00 0.00 97 1011.2
20260510064133 14 43 0.0 1.6 0.00 0.00 0.00 97 1011.2
20260510063633 14 43 0.0 0.0 0.00 0.00 0.00 97 1011.1
20260510063130 13 43 0.0 0.0 0.00 0.00 0.00 96 1011.2
20260510062631 13 43 0.0 0.0 0.00 0.00 0.00 96 1011.2
20260510062131 13 43 0.0 0.0 0.00 0.00 0.00 96 1011.2
20260510061630 13 43 0.0 1.6 0.00 0.00 0.00 96 1011.2
20260510061131 13 43 0.0 4.8 0.00 0.00 0.00 96 1011.4
20260510060629 14 42 0.0 4.8 0.00 0.00 0.00 96 1011.3
20260510060135 14 40 0.0 0.0 0.00 0.00 0.00 96 1011.2
20260510055634 14 40 0.0 0.0 0.00 0.00 0.00 96 1011.4
20260510055133 14 40 0.0 0.0 0.00 0.00 0.00 95 1011.7
20260510054632 14 40 0.0 0.0 0.00 0.00 0.00 95 1011.6
20260510054138 14 40 0.0 0.0 0.00 0.00 0.00 95 1011.7
20260510053633 14 40 0.0 1.6 0.00 0.00 0.00 95 1011.7
20260510053139 14 40 0.0 1.6 0.00 0.00 0.00 95 1011.6
20260510052130 15 39 0.0 0.0 0.00 0.00 0.00 95 1011.6
20260510051632 15 39 0.0 0.0 0.00 0.00 0.00 94 1011.6
20260510051130 15 39 0.0 0.0 0.00 0.00 0.00 94 1011.6
20260510050635 15 39 0.0 0.0 0.00 0.00 0.00 94 1011.6
20260510050137 15 39 0.0 0.0 0.00 0.00 0.00 94 1011.6
20260510045633 15 39 0.0 0.0 0.00 0.00 0.00 94 1011.6
20260510045131 15 39 0.0 1.6 0.00 0.00 0.00 94 1011.6
20260510044633 15 39 0.0 1.6 0.00 0.00 0.00 94 1011.6
20260510044133 15 39 0.0 0.0 0.00 0.00 0.00 94 1011.7
20260510043130 15 39 0.0 0.0 0.00 0.00 0.00 94 1011.6
20260510042630 15 39 0.0 0.0 0.00 0.00 0.00 93 1011.6
20260510042132 15 39 0.0 0.0 0.00 0.00 0.00 93 1011.6
20260510041634 15 39 0.0 0.0 0.00 0.00 0.00 93 1011.6
20260510041132 15 39 0.0 0.0 0.00 0.00 0.00 93 1011.5
20260510040628 15 39 0.0 0.0 0.00 0.00 0.00 93 1011.7
20260510040131 15 39 0.0 0.0 0.00 0.00 0.00 93 1011.6
20260510035626 15 39 0.0 0.0 0.00 0.00 0.00 93 1011.6
20260510035126 15 39 0.0 0.0 0.00 0.00 0.00 93 1011.6
20260510034628 15 39 0.0 0.0 0.00 0.00 0.00 93 1011.6
20260510034123 15 39 0.0 0.0 0.00 0.00 0.00 93 1011.5
20260510033127 15 39 0.0 0.0 0.00 0.00 0.00 93 1011.4
20260510032621 15 39 0.0 0.0 0.00 0.00 0.00 93 1011.2
20260510031619 16 39 0.0 0.0 0.00 0.00 0.00 92 1011.4
20260510031124 16 39 0.0 0.0 0.00 0.00 0.00 92 1011.3
20260510030142 16 39 0.0 0.0 0.00 0.00 0.00 92 1011.2
20260510024611 16 39 0.0 0.0 0.00 0.00 0.00 92 1011.2
20260510024112 16 39 0.0 0.0 0.00 0.00 0.00 92 1011.1
20260510023108 16 39 0.0 0.0 0.00 0.00 0.00 93 1011.0
20260510022602 16 39 0.0 0.0 0.00 0.00 0.00 93 1011.1
20260510022110 16 39 0.0 0.0 0.00 0.00 0.00 93 1011.1
20260510021603 16 39 0.0 0.0 0.00 0.00 0.00 93 1011.2
20260510020559 16 39 0.0 0.0 0.00 0.00 0.00 92 1011.1
20260510015041 16 39 0.0 0.0 0.00 0.00 0.00 92 1010.9
20260510014535 17 39 0.0 0.0 0.00 0.00 0.00 91 1010.9
20260510013532 17 39 0.0 0.0 0.00 0.00 0.00 91 1010.9
20260510012529 17 39 0.0 0.0 0.00 0.00 0.00 91 1010.9
20260510012034 17 39 0.0 0.0 0.00 0.00 0.00 90 1010.9
20260510011534 17 39 0.0 0.0 0.00 0.00 0.00 90 1010.8
20260510011030 17 39 0.0 0.0 0.00 0.00 0.00 90 1010.8
20260510010531 17 39 0.0 0.0 0.00 0.00 0.00 89 1010.8
20260510010031 17 39 0.0 0.0 0.00 0.00 0.00 89 1010.8
20260510005535 18 39 0.0 0.0 0.00 0.00 0.00 89 1010.8
20260510005029 18 39 0.0 0.0 0.00 0.00 0.00 88 1010.7
20260510004031 18 39 0.0 0.0 0.00 0.00 0.00 87 1010.7
20260510003531 18 39 0.0 0.0 0.00 0.00 0.00 87 1010.6
20260510003032 18 39 0.0 0.0 0.00 0.00 0.00 86 1010.5
20260510002533 18 39 0.0 0.0 0.00 0.00 0.00 86 1010.5
20260510002047 19 39 0.0 0.0 0.00 0.00 0.00 85 1010.5
20260510001532 19 39 0.0 0.0 0.00 0.00 0.00 85 1010.5
20260510000518 19 39 0.0 0.0 0.00 0.00 0.00 84 1010.3
20260510000020 20 39 0.0 0.0 0.00 0.00 0.00 84 1010.4
20260509235520 20 39 0.0 0.0 0.00 0.00 0.00 84 1010.2
20260509234518 20 39 0.0 0.0 0.00 0.00 0.00 83 1010.3
20260509234016 20 39 0.0 0.0 0.00 0.00 0.00 82 1010.3
20260509233505 20 39 0.0 0.0 0.00 0.00 0.00 82 1010.3
20260509233014 20 39 0.0 0.0 0.00 0.00 0.00 82 1010.3
20260509232509 21 39 0.0 0.0 0.00 0.00 0.00 81 1010.1
20260509232005 21 39 0.0 0.0 0.00 0.00 0.00 80 1010.1
20260509231505 21 39 0.0 0.0 0.00 0.00 0.00 80 1010.0
20260509231002 21 39 0.0 0.0 0.00 0.00 0.00 79 1010.0
20260509230501 21 39 0.0 1.6 0.00 0.00 0.00 78 1009.9
20260509230006 21 39 0.0 1.6 0.00 0.00 0.00 78 1009.9
20260509225503 21 39 0.0 0.0 0.00 0.00 0.00 77 1009.8
20260509225003 21 39 0.0 0.0 0.00 0.00 0.00 76 1009.8
20260509224503 21 39 0.0 1.6 0.00 0.00 0.00 76 1009.8
20260509224005 21 39 0.0 1.6 0.00 0.00 0.00 76 1009.6
20260509223505 21 39 0.0 1.6 0.00 0.00 0.00 76 1009.7
20260509223003 21 39 0.0 1.6 0.00 0.00 0.00 76 1009.7
20260509222012 21 40 0.0 1.6 0.00 0.00 0.00 75 1009.8
20260509220939 22 40 0.0 1.6 0.00 0.00 0.00 75 1009.8
20260509220437 22 40 0.0 1.6 0.00 0.00 0.00 76 1009.9
20260509215440 22 43 0.0 8.0 0.00 0.00 0.00 77 1009.6
20260509214440 21 337 0.0 3.2 0.00 0.00 0.00 78 1009.6
20260509213941 21 338 0.0 3.2 0.00 0.00 0.00 77 1009.7
20260509213438 21 337 0.0 3.2 0.00 0.00 0.00 79 1009.5
20260509212939 21 336 0.0 3.2 0.00 0.00 0.00 79 1009.6
20260509212449 21 336 0.0 3.2 0.00 0.00 0.00 79 1009.6
20260509211438 21 334 0.0 3.2 0.00 0.00 0.00 80 1009.7
20260509211020 21 333 0.0 4.8 0.00 0.00 0.00 80 1009.8
20260509205936 21 334 0.0 3.2 0.00 0.00 0.00 79 1009.9
20260509205430 21 334 0.0 3.2 0.00 0.00 0.00 79 1009.9
20260509204929 21 333 0.0 3.2 0.00 0.00 0.00 79 1010.0
20260509204433 21 350 0.0 3.2 0.00 0.00 0.00 79 1010.0
20260509203427 21 355 1.6 3.2 0.00 0.00 0.00 80 1010.2
20260509202920 21 0 1.6 3.2 0.00 0.00 0.00 80 1010.3
20260509202413 21 355 0.0 3.2 0.00 0.00 0.00 82 1010.4
20260509201414 21 351 1.6 4.8 0.00 0.00 0.00 83 1010.5
20260509200906 21 348 1.6 4.8 0.00 0.00 0.00 82 1010.5
20260509200411 21 348 1.6 3.2 0.00 0.00 0.00 82 1010.6
20260509195910 21 348 0.0 3.2 0.00 0.00 0.00 84 1010.8
20260509195412 20 0 0.0 3.2 0.00 0.00 0.00 85 1010.9
20260509194914 20 340 0.0 3.2 0.00 0.00 0.00 85 1011.0
20260509193914 20 184 0.0 4.8 0.00 0.00 0.00 89 1011.1
20260509192905 18 217 0.0 6.4 0.00 0.00 0.00 90 1011.2
20260509192404 18 216 0.0 6.4 0.00 0.00 0.00 89 1011.3
20260509191904 18 223 0.0 3.2 0.00 0.00 0.00 90 1011.3
20260509191405 18 223 0.0 3.2 0.00 0.00 0.00 89 1011.4
20260509190404 18 191 0.0 3.2 0.00 0.00 0.00 90 1011.6
20260509185902 17 189 0.0 4.8 0.00 0.00 0.00 90 1011.6
20260509185406 17 86 0.0 4.8 0.00 0.00 0.00 90 1011.8
20260509184355 17 87 0.0 9.7 0.00 0.00 0.00 92 1011.9
20260509183856 17 31 0.0 1.6 0.00 0.00 0.00 92 1012.0
20260509183350 17 30 0.0 1.6 0.00 0.00 0.00 93 1012.1
20260509182352 17 32 0.0 1.6 0.00 0.00 0.00 93 1012.1
20260509181851 17 38 0.0 4.8 0.00 0.00 0.00 93 1012.2
20260509180849 16 40 0.0 1.6 0.00 0.00 0.00 93 1012.3
20260509180347 16 41 0.0 1.6 0.00 0.00 0.00 92 1012.2
20260509175349 16 42 0.0 3.2 0.00 0.00 0.00 91 1012.3
20260509174844 16 329 0.0 3.2 0.00 0.00 0.00 91 1012.3
20260509174344 16 5 0.0 3.2 0.00 0.00 0.00 89 1012.3
20260509173844 17 20 0.0 3.2 0.00 0.00 0.00 89 1012.4
20260509172846 17 345 1.6 3.2 0.00 0.00 0.00 86 1012.4
20260509172344 18 0 1.6 3.2 0.00 0.00 0.00 84 1012.5
20260509171846 18 5 1.6 3.2 0.00 0.00 0.00 82 1012.4
20260509171346 18 5 1.6 3.2 0.00 0.00 0.00 81 1012.2
20260509170847 18 20 1.6 3.2 0.00 0.00 0.00 81 1012.1
20260509165843 18 111 1.6 4.8 0.00 0.00 0.00 79 1012.4
20260509165338 19 64 0.0 3.2 0.00 0.00 0.00 80 1012.3
20260509164842 19 74 0.0 3.2 0.00 0.00 0.00 78 1012.4
20260509164340 19 82 0.0 0.0 0.00 0.00 0.00 77 1012.5
20260509163842 20 82 0.0 0.0 0.00 0.00 0.00 77 1012.5
20260509163340 20 82 0.0 0.0 0.00 0.00 0.00 76 1012.5
20260509162842 20 82 0.0 0.0 0.00 0.00 0.00 75 1012.2
20260509161836 21 82 0.0 1.6 0.00 0.00 0.00 74 1012.2
20260509161337 21 82 0.0 1.6 0.00 0.00 0.00 72 1012.2
20260509160838 21 82 0.0 1.6 0.00 0.00 0.00 71 1012.2
20260509160336 21 83 0.0 1.6 0.00 0.00 0.00 73 1012.3
20260509155833 21 86 0.0 1.6 0.00 0.00 0.00 73 1012.5
20260509155335 21 88 0.0 1.6 0.00 0.00 0.00 71 1012.7
20260509154835 21 98 0.0 1.6 0.00 0.00 0.00 70 1012.9
20260509154330 21 98 0.0 1.6 0.00 0.00 0.00 68 1013.0
20260509153834 21 101 0.0 6.4 0.00 0.00 0.00 67 1013.1
20260509153334 21 117 0.0 6.4 0.00 0.00 0.00 67 1013.2
20260509152332 21 161 0.0 4.8 0.00 0.00 0.00 66 1013.3
20260509151832 21 172 0.0 3.2 0.00 0.00 0.00 66 1013.3
20260509151329 21 178 0.0 1.6 0.00 0.00 0.00 65 1013.3
20260509150831 21 298 0.0 1.6 0.00 0.00 0.00 64 1013.4
20260509145808 21 203 1.6 4.8 0.00 0.00 0.00 64 1013.5
20260509145312 21 337 1.6 6.4 0.00 0.00 0.00 63 1013.6
20260509143817 21 261 0.0 1.6 0.00 0.00 0.00 66 1013.8
20260509142813 20 271 0.0 4.8 0.00 0.00 0.00 67 1013.6
20260509142309 20 145 0.0 4.8 0.00 0.00 0.00 66 1013.5
20260509141803 20 92 0.0 1.6 0.00 0.00 0.00 68 1013.6
20260509141303 20 136 0.0 3.2 0.00 0.00 0.00 69 1013.6
20260509140803 20 136 0.0 4.8 0.00 0.00 0.00 69 1013.6
20260509135804 19 161 0.0 3.2 0.00 0.00 0.00 70 1013.6
20260509135305 19 119 0.0 3.2 0.00 0.00 0.00 71 1013.7
20260509134804 18 130 0.0 3.2 0.00 0.00 0.00 72 1013.7
20260509134302 18 107 0.0 3.2 0.00 0.00 0.00 71 1013.8
20260509133803 18 117 0.0 4.8 0.00 0.00 0.00 72 1013.7
20260509133306 18 99 0.0 4.8 0.00 0.00 0.00 73 1013.7
20260509132809 18 163 0.0 8.0 0.00 0.00 0.00 73 1013.9
20260509131804 18 143 0.0 3.2 0.00 0.00 0.00 75 1014.0
20260509131306 17 148 0.0 3.2 0.00 0.00 0.00 76 1013.9
20260509130806 17 147 0.0 3.2 0.00 0.00 0.00 77 1013.8
20260509130308 17 150 0.0 3.2 0.00 0.00 0.00 77 1014.0
20260509125804 17 165 0.0 3.2 0.00 0.00 0.00 78 1013.9
20260509125308 17 178 0.0 3.2 0.00 0.00 0.00 78 1014.0
20260509124805 16 194 0.0 3.2 0.00 0.00 0.00 78 1014.0
20260509124312 16 189 0.0 3.2 0.00 0.00 0.00 79 1014.0
20260509123303 16 192 0.0 1.6 0.00 0.00 0.00 79 1013.9
20260509122808 16 192 0.0 3.2 0.00 0.00 0.00 79 1013.9
20260509122305 16 192 0.0 3.2 0.00 0.00 0.00 79 1013.9
20260509121301 16 166 0.0 0.0 0.00 0.00 0.00 80 1014.0